Terminal Aerodrome Forecast
Issued by NWS Aberdeen, SD

Home | Current Version | Previous Version | Text Only | Print | Product List | Glossary On
Versions: 1 2 3 4 5 6 7 8 9 10 11 12 13 14 15 16 17 18 19 20 21 22 23 24 25 26 27 28 29 30 31 32 33 34 35 36 37 38 39 40 41 42 43 44 45
000
FTAK31 PAFA 151831 AAA
TAFABR
TAF AMD
PABR 151831Z 1519/1618 06020KT 3SM -SN BLSN OVC020
     FM152200 06021KT 4SM -SN BR OVC035
     FM160400 06019KT 2SM -SN BR BLSN OVC020=

USA.gov is the U.S. government's official web portal to all federal, state and local government web resources and services.